This is the latest recevied weather packets stored in our database for station/object N3WPH. If no packets are shown the sender has not sent any weather packets the latest 10 day(s).
| Time | Temp. | Humidity | Pressure | Rain* | Wind** | Luminosity | Snow |
|---|---|---|---|---|---|---|---|
| 1777886957 | 6.11° C | 70% | 1012.7 hPa | 0 mm | - | 0 W/m² | - |
| 1777886654 | 6.11° C | 70% | 1012.5 hPa | 0 mm | - | 0 W/m² | - |
| 1777886351 | 6.67° C | 66% | 1012.6 hPa | 0 mm | - | 0 W/m² | - |
| 1777886049 | 7.22° C | 64% | 1012.6 hPa | 0 mm | - | 0 W/m² | - |
| 1777885747 | 7.78° C | 60% | 1012.5 hPa | 0 mm | - | 0 W/m² | - |
| 1777885444 | 8.33° C | 58% | 1012.8 hPa | 0 mm | - | 0 W/m² | - |
| 1777885143 | 8.33° C | 58% | 1012.7 hPa | 0 mm | - | 0 W/m² | - |
| 1777884840 | 8.33° C | 57% | 1012.7 hPa | 0 mm | - | 0 W/m² | - |
| 1777884536 | 8.33° C | 58% | 1012.7 hPa | 0 mm | - | 0 W/m² | - |
| 1777884233 | 7.78° C | 58% | 1012.9 hPa | 0 mm | - | 0 W/m² | - |
| 1777883929 | 8.33° C | 59% | 1012.9 hPa | 0 mm | - | 0 W/m² | - |
| 1777883626 | 8.33° C | 59% | 1012.7 hPa | 0 mm | - | 0 W/m² | - |
| 1777883322 | 8.89° C | 57% | 1013 hPa | 0 mm | - | 0 W/m² | - |
| 1777883018 | 8.89° C | 55% | 1012.7 hPa | 0 mm | - | 0 W/m² | - |
| 1777882715 | 8.89° C | 56% | 1012.7 hPa | 0 mm | - | 0 W/m² | - |
| 1777882412 | 8.89° C | 56% | 1012.8 hPa | 0 mm | - | 0 W/m² | - |
| 1777882108 | 8.89° C | 56% | 1012.8 hPa | 0 mm | - | 0 W/m² | - |
| 1777881805 | 8.89° C | 56% | 1012.8 hPa | 0 mm | - | 0 W/m² | - |
| 1777881502 | 8.89° C | 54% | 1012.7 hPa | 0 mm | - | 0 W/m² | - |
| 1777881199 | 8.89° C | 54% | 1012.7 hPa | 0 mm | - | 0 W/m² | - |
| 1777880897 | 8.89° C | 56% | 1012.8 hPa | 0 mm | - | 0 W/m² | - |
| 1777880594 | 8.89° C | 55% | 1012.6 hPa | 0 mm | - | 0 W/m² | - |
| 1777880292 | 8.89° C | 55% | 1012.7 hPa | 0 mm | - | 0 W/m² | - |
| 1777879990 | 8.89° C | 55% | 1012.6 hPa | 0 mm | - | 0 W/m² | - |
| 1777879689 | 8.89° C | 55% | 1012.7 hPa | 0 mm | - | 0 W/m² | - |
* Rain latest hour (hover to see other rain measurements)
** Current wind speed in m/s (hover to see current wind gust speed)